sat.trackr.live / text

‹ back to catalog

STARLINK-11268 [DTC]

NORAD 61055 · 2024-164F

PAYLOAD ACTIVE UNKNOWN

§ Identity

Operator
Country
US
Launch date
2024-09-13
Launch site
AFWTR
Launch vehicle
Mass (kg)
RCS (m²)

Purposes: comms

External: N2YO · Heavens-Above · Gunter

§ Orbital elements

Epoch: 2026-09-21T19:09:49.468608Z

Period
91.74 min
Inclination
53.1598°
Eccentricity
0.0001065
Mean motion
15.69711363 rev/d
Perigee alt
359.0 km
Apogee alt
360.4 km
Semi-major
6,737.9 km
B*
7.5421e-6
RAAN
64.2559°
Arg perigee
77.4190°
Mean anomaly
282.6947°
Rev number
11,622

§ Raw data

STARLINK-11268 [DTC]1 61055U 24164F   26264.79848922  .00000325  00000+0  75421-5 0  99962 61055  53.1598  64.2559 0001065  77.4190 282.6947 15.69711363116223

JSON: /api/v1/satellites/61055 · /tle

For live sub-satellite position, see the globe view (requires WebGL).

§ Visibility from observer

Set your observer location to see the next 7 days of passes ≥ 10°. The values pass through the URL so the page stays shareable.

No JS? Fill the form by hand. The geolocation button needs JavaScript.